Regional Weather Roundup
Issued by NWS Upton, NY

Current Version | Previous Version | Graphics & Text | Print | Product List | Glossary Off
Versions: 1 2 3 4 5 6 7 8 9 10 11 12 13 14 15 16 17 18 19 20 21 22 23 24 25 26 27 28 29 30 31 32 33 34 35 36 37 38 39 40 41 42 43 44 45 46 47 48 49 50

000
ASUS41 KOKX 280308
RWROKX

REGIONAL WEATHER ROUNDUP
NATIONAL WEATHER SERVICE NEW YORK NY
1100 PM EDT THU APR 27 2017

NOTE: "FAIR" INDICATES FEW OR NO CLOUDS BELOW 12,000 FEET WITH NO
SIGNIFICANT WEATHER AND/OR OBSTRUCTIONS TO VISIBILITY.

NYZ071-072-176-178-NJZ106-104-280400-
NEW YORK CITY METRO AREA

CITY           SKY/WX    TMP DP  RH WIND       PRES   REMARKS
Central Park   CLOUDY    57  56  96 VRB3      29.91F FOG
Wall St Helipt CLOUDY    56  54  93 NE7       29.90F
Bronx Bot Gard   N/A     57  55  94 E7        29.90F
LaGuardia APRT CLOUDY    58  56  93 SE8       29.89F FOG
Kennedy INTL   FOG       56  56 100 E7        29.91F VSB 3/4
Breezy Point     N/A     52 N/A N/A E3          N/A
Newark/Liberty FOG       56  55  97 E5        29.89F VSB 1
Teterboro      CLOUDY    59  57  93 S3        29.88S FOG
$$

NYZ177-179-078>081-280400-
LONG ISLAND NEW YORK

CITY           SKY/WX    TMP DP  RH WIND       PRES   REMARKS
Jones Beach      N/A     52 N/A N/A E5          N/A
Matinecock PT  NOT AVBL
Farmingdale    CLOUDY    56  56 100 SE7       29.91F FOG
MacArthur/ISP  FOG       56  56 100 SE7       29.91F VSB 1/4
Shirley        FOG       56  56 100 SE8       29.93S VSB 1
Mt Sinai Harb    N/A     57 N/A N/A S8          N/A
Westhampton    CLOUDY    57  55  93 SE8       29.95S
East Hampton   CLOUDY    55  54  96 SE5       29.94S
Montauk          N/A     53  52  96 VRB3      29.97R
$$

NYZ052-065-067-280400-
HUDSON VALLEY

CITY           SKY/WX    TMP DP  RH WIND       PRES   REMARKS
White Plains   DRZL/FOG  58  58 100 E8        29.89F VSB 1/4
Larchmont Harb   N/A     54 N/A N/A NE5         N/A
Croton O-T Hud   N/A     59 N/A N/A E2          N/A
Newburgh       CLOUDY    61  59  94 SE6       29.90F FOG
Montgomery     CLOUDY    62  58  86 SE3       29.86F
Poughkeepsie   CLOUDY    61  57  87 SE5       29.87F
Albany         CLOUDY    65  56  72 S12G25    29.85F
$$

NJZ001-105-106-008-010-013-015-019>022-104-280400-
NEW JERSEY

CITY           SKY/WX    TMP DP  RH WIND       PRES   REMARKS
Newark/Liberty FOG       56  55  97 E5        29.89F VSB 1
Teterboro      CLOUDY    59  57  93 S3        29.88S FOG
Caldwell       CLOUDY    59  57  93 E7        29.88F FOG
Somerville     CLOUDY    61  58  90 VRB3      29.86S
Linden         CLOUDY    55  54  95 CALM      29.88F FOG
Perth Amboy      N/A     54 N/A N/A NE5         N/A
Sussex         MOCLDY    59  58  96 CALM      29.88S
Andover          N/A     60  58  92 S5        29.87S
Trenton        PTCLDY    60  58  92 E5        29.86R
Millville      PTCLDY    65  64  97 S6        29.85S
Atlantic City  CLEAR     63  60  90 S14       29.86F
Wrightstown    NOT AVBL
Toms River     CLEAR     63  61  93 S9        29.87S
Belmar         CLOUDY    56  55  97 SE5       29.88F FOG
$$

PAZ047>061-062-071-280400-
EASTERN PENNSYLVANIA

CITY           SKY/WX    TMP DP  RH WIND       PRES   REMARKS
Philadelphia   CLOUDY    68  61  78 CALM      29.83F
Allentown      CLOUDY    68  61  78 SE6       29.84R
Scranton       CLOUDY    69  62  78 VRB3      29.81R
$$

CTZ002-004>006-009-010-012-RIZ004-006-007-MAZ004-011-015-280400-
SOUTHERN NEW ENGLAND
 IN CT

CITY           SKY/WX    TMP DP  RH WIND       PRES   REMARKS
Bradley INTL   CLOUDY    60  56  86 S12       29.92S
Hartford       CLOUDY    59  56  89 S7        29.93S
Danbury        CLOUDY    57  57 100 SE6       29.93S FOG
Wtrbury/Oxford CLOUDY    57  54  88 SE6       29.94S VSB 1/2
Bridgeport     CLOUDY    54  51  90 E8        29.92S FOG
Meriden        CLOUDY    59  57  93 CALM      29.93F FOG
New Haven      CLOUDY    56  54  93 E7        29.92F
Chester        FOG       57  57 100 E3        29.94S VSB 1
Groton         CLOUDY    55  53  93 CALM      29.95R
Wilimantic     CLOUDY    59  56  89 S3        29.95S

 IN RI

CITY           SKY/WX    TMP DP  RH WIND       PRES   REMARKS
Providence     CLOUDY    56  55  97 S5        29.96S
Block Island   CLOUDY    54  54 100 SE8       29.96S FOG
Westerly       CLOUDY    55  54  96 CALM      29.96S
 IN MA

CITY           SKY/WX    TMP DP  RH WIND       PRES   REMARKS
Boston         NOT AVBL
Worcester      CLOUDY    58  53  84 S9        29.94S
Westfield      CLOUDY    61  57  87 S9        29.91S
Provincetown   MOCLDY    54  53  97 S9        29.96F
Nantucket      CLOUDY    51  50  96 S3        29.97F FOG
$$

ANZ330-335-338-340-345-350-353-355-280400-
COASTAL MARINE OBSERVATIONS


STATION/POSITION TIME  SKY/WX   TEMP    WIND        PRES    VSBY  WAVE
                                AIR SEA DIR/SP/G                  HT/PER
                 (UTC)          (F)     (DEG/KT/KT) (MB)    (MI)  (FT/S)
NY HARB ENTRANCE 0150            52 50  140/ 10/ 12 1012.4          4/ 9
20 S FIRE ISLAND 0250            52 49  160/  8/ 10 1012.1          5/10
GREAT SOUTH BAY  0230            54 58  110/  8/ 10   N/A
23 SSW MONTAUK P 0150            50 48              1014.2          6/ 9
15 E BARNEGAT LI 0230               51                N/A           5/ 9
HUDSON CANYON    0150            54 50  170/ 10/ 10 1013.4          6/ 9
KINGS POINT      0242            56 50  190/  5/  6 1012.1
EXECUTION ROCKS  NOT AVBL
CENTRAL LI SOUND 0230            47      80/  8/ 10   N/A           1
EASTERN LI SOUND NOT AVBL
ROBBINS REEF     0248            54     120/  7/  8 1012.3
$$


>>>>>>>>>>>>>>>>>>>>>>>>>>>> KEY <<<<<<<<<<<<<<<<<<<<<<<<<<<
>                                                          <
>     SKY/WX - Sky Condition/Present Weather               <
>     TMP    - Temperature in Fahrenheit                   <
>     DP     - Dew Point in Fahrenheit                     <
>     RH     - Relative Humidity in Percent                <
>     WIND   - Direction (from) and Speed in MPH           <
>     PRES   - Mean Sea Level Pressure (inches of Hg)      <
>     WCI    - Wind Chill Index                            <
>     VSB    - VISIBILITY IN MILES                         <
>     HX     - HEAT INDEX                                  <
>     TC     - TEMPERATURE IN CELSIUS                      <
>     VRB    - VARIABLE WIND DIRECTION                     <
>                                                          <
>>>>>>>>>>>>>>>>>>>>>>>>>>>> KEY <<<<<<<<<<<<<<<<<<<<<<<<<<<



USA.gov is the U.S. government's official web portal to all federal, state and local government web resources and services.